Probability
1 5 10 13 14 16 15 11 8 8 8 5 3 1 1 0 0 1 2 1 0 0 0 0 0 0 0 0 1 2 3 3 1 0 0 0 0 0 1 2 2 1 1
1 4 9 12 14 15 15 13 10 9 9 8 6 4 2 1 2 3 2 1 0 1 1 1 0 0 0 0 0 1 3 3 2 1 0 0 0 0 1 2 2 2 2
1 3 7 11 13 13 14 14 12 10 10 11 11 9 6 4 4 4 2 1 1 2 2 2 1 0 1 1 0 1 2 4 4 2 1 0 0 0 0 1 2 2 3
1 3 6 9 11 12 13 15 15 13 12 13 13 12 11 8 7 6 3 2 3 3 3 2 1 0 1 2 1 0 1 4 4 3 1 0 0 1 1 1 1 1 2
1 3 6 9 10 10 11 14 16 15 14 14 14 13 13 10 9 8 7 5 5 4 2 1 0 0 1 2 2 1 1 2 3 2 0 0 2 3 2 2 2 2 2
1 3 7 9 9 8 9 13 14 14 15 14 14 13 13 13 12 11 9 8 6 3 2 2 1 0 0 1 1 2 1 1 1 0 0 1 3 6 5 4 5 4 4
1 3 7 10 9 8 9 12 13 13 14 14 13 13 14 15 15 13 11 10 7 3 2 3 3 1 0 1 2 3 3 1 0 0 0 1 4 6 6 5 6 6 6
2 4 7 9 8 8 9 11 11 12 12 13 13 13 14 16 15 13 11 9 7 4 3 4 5 3 1 1 3 4 3 1 0 0 0 1 3 5 5 4 5 5 6
5 6 8 8 6 6 8 9 10 10 11 12 13 13 14 15 14 11 9 8 7 6 5 5 5 4 2 1 4 5 3 1 0 0 0 0 1 3 3 2 3 4 6
6 7 9 9 8 7 6 8 9 10 10 11 12 13 13 13 12 9 8 7 7 7 6 5 6 5 3 2 3 4 3 1 0 1 1 0 1 2 2 1 2 4 5
4 6 8 9 10 10 8 8 9 10 10 10 11 13 13 11 8 7 6 7 8 7 6 5 6 6 4 2 3 3 2 0 1 2 2 2 2 2 3 2 3 5 5
3 4 6 8 10 11 11 10 10 11 10 10 10 11 12 11 7 5 5 6 7 6 4 4 6 6 5 4 4 3 2 1 1 2 3 3 3 3 4 3 3 4 4
2 4 6 7 8 10 11 12 12 12 12 11 10 9 10 10 8 6 6 6 6 5 4 4 4 5 5 5 6 5 3 1 0 1 2 3 3 3 4 3 2 2 2
3 4 5 6 7 8 10 12 12 13 12 11 9 7 8 8 8 6 6 6 6 6 6 5 4 3 4 5 6 6 5 2 0 1 1 2 2 3 3 3 2 1 1
4 4 5 6 6 7 9 10 11 12 12 10 8 7 5 6 6 5 4 5 6 6 6 5 3 2 2 4 5 5 5 3 1 0 0 0 1 2 3 3 2 1 1
5 7 7 6 6 6 7 9 9 9 9 9 8 6 4 4 5 4 3 4 5 6 5 4 2 0 1 1 2 4 5 4 1 0 0 0 0 1 2 3 2 1 2
6 8 8 7 5 4 5 7 8 7 7 7 7 5 3 3 3 2 1 2 4 4 4 3 1 0 0 0 1 2 4 4 1 0 0 0 0 0 1 2 2 1 2
5 6 8 6 4 3 3 5 6 6 6 6 5 4 2 1 1 1 1 1 2 3 3 2 1 0 0 0 1 2 3 3 1 0 0 0 0 0 0 1 1 1 1
4 4 5 5 3 2 2 3 5 7 6 5 4 3 1 0 0 0 0 1 1 1 2 1 0 0 0 0 1 2 3 3 2 1 0 0 0 0 0 0 0 0 0
2 2 2 3 3 3 2 2 4 6 5 4 3 2 1 0 0 0 0 0 1 1 0 0 0 0 0 0 0 1 3 3 2 1 0 0 0 0 0 0 0 0 0
1 1 0 1 2 3 2 2 2 3 3 1 1 1 1 0 0 0 0 0 0 0 0 0 0 0 0 0 1 1 2 2 2 1 0 0 0 0 0 0 0 1 1
0 0 0 0 1 1 2 2 2 2 1 0 0 0 0 0 0 0 0 0 0 0 0 0 0 0 0 1 2 2 1 1 1 0 0 0 0 0 0 0 0 0 0
0 0 0 0 0 0 1 1 2 2 1 0 0 0 0 0 0 0 0 0 0 0 0 0 0 0 0 1 2 2 1 0 0 0 0 0 0 0 0 0 0 0 0
0 0 0 0 0 0 0 1 2 2 2 1 1 0 0 0 0 0 0 0 0 0 0 0 0 0 0 0 1 1 1 1 0 0 0 0 0 0 0 0 0 0 0
0 0 0 0 0 0 0 0 1 1 2 2 2 1 0 0 0 0 0 0 0 0 0 0 0 0 0 0 0 0 0 0 0 0 0 0 0 0 0 0 0 0 0
0 0 0 0 0 0 0 0 0 0 1 3 3 2 1 1 1 0 0 0 0 0 0 0 0 0 0 0 0 0 0 0 0 1 1 1 0 0 0 0 0 0 0
Wind_Speed
2 2 2 2 3 4 5 5 5 6 6 6 6 6 6 6 6 6 6 6 6 6 6 6 6 6 6 6 7 7 7 7 7 7 7 7 7 7 7 5 4 5 7
3 3 4 3 3 4 5 5 5 5 6 6 6 6 6 6 6 6 6 6 6 6 5 5 5 6 6 6 6 6 6 6 6 6 5 6 6 6 6 5 4 5 6
3 4 4 4 4 4 4 5 4 5 5 5 5 5 5 5 5 5 5 5 5 5 5 5 5 5 5 5 5 5 5 5 5 4 2 3 5 5 4 4 4 5 5
4 4 4 5 5 4 5 5 5 4 4 4 4 4 4 4 4 5 4 4 5 5 5 5 5 5 4 4 5 4 5 5 4 1 2 2 3 5 3 3 4 4 3
4 4 5 5 5 5 4 4 5 4 4 4 4 4 4 4 4 4 4 4 4 4 4 4 4 4 4 4 4 4 4 4 2 2 2 2 2 4 3 3 2 2 2
4 4 5 4 4 4 4 5 4 4 4 3 3 3 3 3 3 3 3 3 3 3 3 3 3 3 3 3 3 3 3 2 2 1 1 1 2 3 2 2 1 1 1
3 3 4 4 4 4 4 4 4 4 4 4 4 3 3 3 2 3 2 3 3 2 3 3 3 2 2 2 2 2 2 0 2 1 1 1 1 1 2 2 2 1 1
3 3 3 4 4 3 3 4 4 4 3 3 3 3 3 2 2 2 2 2 2 2 2 2 2 2 1 1 1 1 1 2 2 2 2 1 1 1 2 2 2 2 2
3 3 2 2 2 3 3 4 4 3 4 3 3 2 3 2 1 1 1 1 1 1 1 1 1 1 1 1 0 1 0 2 4 2 2 1 1 2 3 3 3 4 3
2 2 2 1 1 2 2 3 3 3 3 3 3 3 2 1 0 1 1 1 0 0 0 1 0 1 1 1 0 0 1 4 4 3 2 1 1 3 4 5 5 5 5
1 1 1 1 0 1 1 2 1 2 2 1 1 2 1 1 1 1 1 0 0 0 1 1 1 1 1 2 1 1 3 3 3 3 2 1 3 5 5 5 6 6 7
1 0 0 1 0 1 1 1 1 1 1 0 1 1 1 1 1 2 1 1 0 0 1 1 1 2 3 3 3 3 3 3 3 2 1 1 4 6 6 6 7 7 8
2 1 1 1 1 1 1 1 1 1 1 1 1 1 1 1 1 1 1 1 1 2 1 1 3 3 3 3 3 3 3 3 2 2 2 2 5 7 7 7 8 8 8
2 2 1 1 1 1 1 1 1 1 1 1 1 1 1 1 1 1 1 1 1 1 1 2 2 3 4 4 4 4 4 3 3 2 2 3 6 8 9 9 9 10 9
2 2 2 2 2 2 2 1 1 1 1 1 1 1 2 2 2 2 2 2 2 2 2 2 3 3 4 4 4 5 5 5 5 4 3 4 6 8 9 10 10 11 10
3 3 2 2 2 2 2 2 2 2 2 2 1 2 2 2 2 2 2 2 2 2 2 3 4 4 4 3 5 5 6 6 6 5 5 4 6 8 9 10 11 12 11
2 2 2 2 2 2 2 2 2 2 2 2 2 2 2 2 2 2 2 2 2 3 3 3 4 3 4 4 5 5 5 6 6 6 6 5 5 6 9 11 11 11 12
2 2 2 1 2 2 2 2 2 2 2 2 2 2 2 2 3 2 2 2 2 3 3 3 3 3 4 4 4 4 5 5 7 7 6 6 5 5 7 9 11 11 12
2 2 2 1 2 2 2 2 2 2 2 2 2 2 2 2 2 2 2 2 2 2 3 3 3 4 4 5 5 5 5 6 6 7 7 7 7 6 6 6 9 10 11
1 1 1 1 2 2 2 1 1 2 2 1 2 2 2 2 3 3 2 2 2 3 3 3 4 4 4 4 5 5 6 6 6 6 7 6 6 7 7 6 5 6 8
1 1 1 2 2 1 1 1 1 2 1 2 2 2 3 3 3 3 2 2 3 3 4 4 4 4 4 3 4 5 5 6 6 5 5 5 5 6 6 6 5 4 4
1 1 1 2 2 2 2 2 2 2 2 2 2 3 3 3 3 3 3 3 3 3 4 4 4 4 3 3 3 4 4 4 4 4 5 5 6 5 5 5 5 5 5
2 2 2 2 2 2 3 2 2 2 2 2 2 3 3 3 3 3 4 3 3 3 4 4 5 5 4 4 4 4 4 4 4 3 5 5 5 5 5 5 6 6 6
2 2 2 2 2 2 2 2 3 3 3 3 3 3 4 4 3 3 4 4 4 4 4 5 5 5 6 5 4 4 5 4 4 4 3 4 5 6 6 5 5 6 6
2 2 2 2 2 2 3 3 4 3 3 3 3 4 4 3 3 4 4 4 4 4 5 5 5 5 5 5 4 4 5 5 7 6 6 5 5 5 5 5 5 5 6
2 2 2 2 3 3 3 3 4 4 4 4 4 4 4 3 3 4 4 4 4 4 5 5 5 6 5 6 5 5 5 4 5 5 6 6 6 5 5 5 5 5 5
Wind_Direction
128 113 70 61 87 99 99 92 87 84 84 89 94 96 95 94 90 85 80 78 80 84 88 89 98 97 96 99 99 100 99 95 93 93 92 92 94 93 90 84 86 95 87
119 117 90 72 83 98 107 100 93 86 83 86 92 98 98 96 94 91 84 82 81 82 87 89 100 100 95 96 98 99 97 96 97 89 90 103 99 95 91 82 58 74 89
111 113 111 76 75 88 100 102 96 90 87 87 88 96 99 99 98 94 88 84 82 79 82 87 92 97 100 98 96 96 99 101 100 90 130 125 111 105 99 91 85 84 88
112 113 101 77 71 82 92 94 93 90 91 90 89 91 102 103 102 97 92 88 83 79 77 76 87 92 94 98 99 97 99 99 101 145 168 113 115 108 108 104 95 92 92
116 113 97 78 73 74 84 90 90 88 86 85 85 82 92 104 105 101 98 92 84 79 75 72 83 91 99 97 103 107 105 99 103 213 137 128 122 108 115 104 90 92 104
114 112 100 80 79 76 79 81 83 80 79 79 79 80 82 92 95 96 95 92 85 81 77 76 87 88 94 99 109 117 113 108 196 176 163 161 140 109 128 123 111 87 93
108 102 103 85 80 77 79 76 72 72 68 69 67 69 69 76 83 82 83 93 92 89 91 87 86 90 91 95 112 134 129 220 227 193 197 184 128 90 177 174 182 187 191
101 102 106 94 77 76 80 76 67 60 64 63 62 58 51 51 71 97 92 87 103 109 106 106 96 94 104 108 105 135 163 240 233 221 214 205 95 247 222 211 220 222 230
101 98 99 120 119 101 82 76 66 55 51 51 50 45 42 39 49 111 107 96 93 144 132 118 111 124 164 166 120 32 331 273 245 229 228 222 136 249 248 241 235 236 238
103 88 90 100 128 150 139 89 66 60 48 40 40 29 22 15 38 123 138 83 42 166 168 178 237 255 231 207 186 340 278 249 233 233 236 210 216 251 262 255 249 245 243
122 87 63 66 128 177 169 116 111 88 66 41 50 30 318 233 224 196 177 351 326 298 275 246 246 261 249 202 212 261 247 244 251 250 245 249 241 251 261 266 259 251 246
192 186 347 345 331 221 189 181 193 195 154 282 340 308 281 286 269 256 173 212 231 277 245 247 256 233 238 223 207 225 239 251 252 248 254 265 254 257 262 265 266 260 252
212 232 285 300 303 277 228 228 228 232 239 260 297 314 300 296 274 241 220 184 198 211 219 206 228 234 242 241 241 239 247 254 252 249 251 269 264 266 270 271 266 265 261
221 234 263 276 280 279 256 239 243 249 257 268 273 299 291 294 289 266 248 256 244 243 253 251 254 251 250 245 242 243 243 245 251 258 257 261 265 268 270 270 270 267 264
236 245 259 263 261 261 252 249 252 254 259 262 264 274 282 277 278 270 254 249 262 269 257 261 260 258 255 253 248 246 247 251 247 249 245 246 260 265 269 269 267 264 260
240 249 263 259 267 260 252 250 255 254 254 259 260 272 274 269 269 272 262 255 258 267 264 260 259 264 261 257 255 251 251 251 248 245 251 242 246 259 265 270 268 265 260
249 252 261 264 270 262 261 259 255 254 254 253 261 266 272 271 266 272 257 250 259 267 261 260 260 263 266 259 256 257 257 254 252 249 251 254 245 248 261 266 268 266 263
262 260 255 264 255 250 257 266 258 253 253 255 263 274 280 282 278 266 258 247 253 257 255 255 261 263 264 264 263 262 260 256 254 253 253 251 252 251 252 260 265 267 265
271 275 257 257 257 256 254 254 259 253 252 259 262 270 281 280 275 268 260 263 248 250 248 252 261 265 266 271 270 266 261 255 254 254 253 252 251 250 253 252 257 264 266
282 293 294 268 277 268 256 254 255 251 256 260 259 267 280 277 272 265 251 262 263 254 250 249 256 266 267 271 275 272 264 258 253 252 255 255 250 249 250 253 251 254 263
308 313 314 315 300 288 273 269 267 268 273 272 269 272 275 279 276 265 257 254 261 258 258 257 259 257 260 268 274 275 267 253 249 252 254 258 257 257 256 252 249 255 257
316 312 302 299 308 294 277 270 270 274 273 273 273 266 265 269 275 263 257 255 257 263 259 253 255 256 254 246 258 272 274 257 238 251 250 253 257 257 259 262 260 259 265
310 305 297 294 291 298 302 282 268 251 258 259 274 278 267 265 267 269 259 257 253 249 250 252 247 247 247 246 245 253 265 267 295 254 253 252 253 256 258 261 263 266 266
300 298 290 293 294 296 292 276 262 259 266 271 276 276 279 268 266 264 257 257 253 247 248 252 254 251 242 244 249 259 266 276 271 277 250 250 258 262 262 264 265 263 263
309 305 302 298 298 297 287 273 268 268 274 276 273 273 279 276 266 263 257 256 254 250 250 250 253 253 249 249 250 257 259 260 254 258 268 267 265 264 268 269 269 269 266
327 317 311 302 302 301 288 278 273 278 280 277 276 278 279 279 274 264 260 258 255 252 251 251 249 249 253 253 252 247 250 253 251 255 264 269 271 271 269 268 266 266 267